Simultaneous Nadir Overpasses (SNOs) Predictions

Prediction of SNOs between AQUA and NOAA-19 Satellite Orbit:

Table of predicted SNOs for the next 14.0 days since TLE Epoch: 8/12/2023
Index Date (AQUA) Time (AQUA) Lat,Lon (AQUA) SZA (AQUA ) Date (NOAA-19) Time (NOAA-19) Lat,Lon (NOAA-19) SZA (NOAA-19 ) Distance(km) Time Diff (sec)
1 08/13/2023 22:57:11 -76.29, 7.33 118.10 08/13/2023 22:56:39 -76.31, 7.35 118.07 2.66 32
2 08/13/2023 23:46:37 76.35, 174.77 61.99 08/13/2023 23:47:35 76.35, 174.76 61.98 0.51 58
3 08/16/2023 03:39:02 -76.30, -63.13 117.42 08/16/2023 03:38:05 -76.30, -62.99 117.41 3.79 57
4 08/16/2023 04:28:27 76.31, 104.46 62.62 08/16/2023 04:29:01 76.31, 104.32 62.62 3.54 34
5 08/18/2023 08:20:48 -76.09,-132.91 116.95 08/18/2023 08:19:37 -76.02,-134.33 116.95 39.12 71
6 08/18/2023 09:10:17 76.31, 34.05 63.31 08/18/2023 09:10:26 76.31, 34.04 63.31 0.79 9
7 08/20/2023 13:52:06 76.28, -36.30 63.99 08/20/2023 13:51:51 76.31, -36.27 64.02 3.20 15
8 08/20/2023 14:41:38 -76.66, 130.05 115.57 08/20/2023 14:42:46 -76.68, 132.47 115.66 62.09 68
9 08/22/2023 18:33:55 76.28,-106.74 64.71 08/22/2023 18:33:17 76.25,-106.77 64.69 3.44 38
10 08/22/2023 19:23:20 -76.33, 60.75 115.23 08/22/2023 19:24:19 -76.35, 60.84 115.22 2.91 59
11 08/24/2023 23:15:43 76.27,-177.11 65.44 08/24/2023 23:14:42 76.24,-177.12 65.42 3.48 61



Historial Predications of SNOs between AQUA and NOAA-19
